When you browse on this site, cookies collect data to enhance your experience and personalize the content and advertising you see.
Visit our Privacy Policy to learn more. By continuing to use the site, you agree to this use of cookies and data.
  • In Spain
  • List of Countries
  • For 7 days
  • Water Temperature
  • Satellite Maps
  • Weather Map
  • Weather Widgets
  • user-avatar
    Login

    Hourly Weather Solden

    Today, 15 July, Monday

    Time Temperature Precipitation Wind Pressure Humidity
    00:00 +6°C° 1.5 mm 1 mps 582 mmHg 94%
    01:00 +6°C° 0 mm 1 mps 582 mmHg 95%
    02:00 +5°C° 0.8 mm 1 mps 582 mmHg 95%
    03:00 +5°C° 0.8 mm 1 mps 581 mmHg 95%
    04:00 +4°C° 0.8 mm 0 mps 581 mmHg 95%
    05:00 +4°C° 0 mm 0 mps 581 mmHg 94%
    06:00 +5°C° 0 mm 0 mps 582 mmHg 93%
    07:00 +7°C° 0 mm 1 mps 582 mmHg 92%
    08:00 +8°C° 0.5 mm 1 mps 583 mmHg 88%
    09:00 +9°C° 0.5 mm 1 mps 583 mmHg 84%
    10:00 +10°C° 0.5 mm 1 mps 584 mmHg 80%
    11:00 +11°C° 0.7 mm 1 mps 584 mmHg 79%
    12:00 +11°C° 0.7 mm 1 mps 584 mmHg 77%
    13:00 +12°C° 0 mm 2 mps 585 mmHg 74%
    14:00 +10°C° 1.1 mm 2 mps 584 mmHg 76%
    15:00 +11°C° 1.1 mm 1 mps 584 mmHg 78%
    16:00 +11°C° 1.1 mm 1 mps 584 mmHg 80%
    17:00 +10°C° 0.8 mm 1 mps 584 mmHg 84%
    18:00 +9°C° 0.8 mm 1 mps 584 mmHg 87%
    19:00 +8°C° 0.8 mm 1 mps 584 mmHg 91%
    20:00 +7°C° 0.1 mm 1 mps 583 mmHg 91%
    21:00 +6°C° 0.1 mm 1 mps 583 mmHg 91%
    22:00 +4°C° 0.1 mm 1 mps 582 mmHg 92%
    23:00 +4°C° 0 mm 1 mps 582 mmHg 91%

    Tomorrow, 16 July, Tuesday

    Time Temperature Precipitation Wind Pressure Humidity
    00:00 +4°C° 0 mm 1 mps 582 mmHg 91%
    01:00 +2°C° 0 mm 2 mps 582 mmHg 91%
    02:00 +2°C° 0 mm 2 mps 582 mmHg 90%
    03:00 +2°C° 0 mm 2 mps 582 mmHg 89%
    04:00 +1°C° 0 mm 2 mps 581 mmHg 88%
    05:00 +4°C° 0 mm 1 mps 582 mmHg 85%
    06:00 +5°C° 0 mm 1 mps 583 mmHg 83%
    07:00 +7°C° 0 mm 1 mps 584 mmHg 80%
    08:00 +9°C° 0 mm 1 mps 585 mmHg 68%
    09:00 +11°C° 0 mm 1 mps 586 mmHg 57%
    10:00 +14°C° 0 mm 1 mps 587 mmHg 46%
    11:00 +15°C° 0 mm 1 mps 588 mmHg 43%
    12:00 +16°C° 0 mm 1 mps 588 mmHg 40%
    13:00 +18°C° 0 mm 1 mps 588 mmHg 37%
    14:00 +18°C° 0 mm 1 mps 588 mmHg 38%
    15:00 +18°C° 0 mm 1 mps 588 mmHg 38%
    16:00 +18°C° 0 mm 1 mps 588 mmHg 39%
    17:00 +15°C° 0.1 mm 1 mps 587 mmHg 51%
    18:00 +14°C° 0.1 mm 1 mps 587 mmHg 62%
    19:00 +12°C° 0.1 mm 1 mps 586 mmHg 74%
    20:00 +10°C° 0 mm 1 mps 585 mmHg 78%
    21:00 +8°C° 0 mm 1 mps 585 mmHg 83%
    22:00 +6°C° 0 mm 1 mps 584 mmHg 88%
    23:00 +6°C° 0 mm 1 mps 584 mmHg 88%

    Day after tomorrow, 17 July, Wednesday

    Time Temperature Precipitation Wind Pressure Humidity
    00:00 +6°C° 0 mm 1 mps 583 mmHg 88%
    01:00 +5°C° 0 mm 1 mps 583 mmHg 89%
    02:00 +5°C° 0 mm 1 mps 583 mmHg 89%
    03:00 +5°C° 0 mm 1 mps 583 mmHg 89%
    04:00 +5°C° 0 mm 1 mps 582 mmHg 89%
    05:00 +6°C° 0 mm 1 mps 583 mmHg 84%
    06:00 +7°C° 0 mm 0 mps 584 mmHg 79%
    07:00 +9°C° 0 mm 0 mps 585 mmHg 74%
    08:00 +11°C° 0 mm 0 mps 585 mmHg 68%
    09:00 +13°C° 0 mm 1 mps 586 mmHg 63%
    10:00 +15°C° 0 mm 1 mps 587 mmHg 58%
    11:00 +15°C° 0.6 mm 1 mps 586 mmHg 61%
    12:00 +15°C° 0.6 mm 1 mps 586 mmHg 63%
    13:00 +15°C° 0.6 mm 2 mps 586 mmHg 66%
    14:00 +15°C° 1.4 mm 1 mps 586 mmHg 69%
    15:00 +14°C° 1.4 mm 1 mps 585 mmHg 72%
    16:00 +14°C° 1.4 mm 1 mps 585 mmHg 76%
    17:00 +13°C° 1.4 mm 1 mps 585 mmHg 81%
    18:00 +12°C° 1.4 mm 1 mps 584 mmHg 85%
    19:00 +10°C° 1.4 mm 0 mps 584 mmHg 89%
    20:00 +10°C° 0.7 mm 1 mps 583 mmHg 89%
    21:00 +8°C° 0.7 mm 1 mps 583 mmHg 90%
    22:00 +7°C° 0.7 mm 1 mps 583 mmHg 90%
    23:00 +7°C° 0.2 mm 1 mps 582 mmHg 90%

    18 July, Thursday

    Time Temperature Precipitation Wind Pressure Humidity
    00:00 +6°C° 0.2 mm 1 mps 582 mmHg 90%
    01:00 +5°C° 0.2 mm 1 mps 581 mmHg 90%
    02:00 +5°C° 0 mm 1 mps 581 mmHg 90%
    03:00 +5°C° 0 mm 1 mps 581 mmHg 90%
    04:00 +5°C° 0 mm 1 mps 581 mmHg 89%
    05:00 +6°C° 0 mm 1 mps 581 mmHg 87%
    06:00 +8°C° 0 mm 1 mps 582 mmHg 85%
    07:00 +8°C° 0 mm 0 mps 583 mmHg 83%
    08:00 +9°C° 0.4 mm 0 mps 583 mmHg 79%
    09:00 +11°C° 0.4 mm 1 mps 584 mmHg 75%
    10:00 +13°C° 0.4 mm 1 mps 585 mmHg 71%
    11:00 +13°C° 1.2 mm 1 mps 585 mmHg 71%
    12:00 +14°C° 1.2 mm 1 mps 585 mmHg 71%
    13:00 +14°C° 1.2 mm 1 mps 585 mmHg 72%
    14:00 +14°C° 1.5 mm 1 mps 585 mmHg 75%
    15:00 +13°C° 1.5 mm 1 mps 585 mmHg 78%
    16:00 +13°C° 1.5 mm 1 mps 584 mmHg 81%
    17:00 +12°C° 0.9 mm 1 mps 584 mmHg 84%
    18:00 +10°C° 0.9 mm 0 mps 584 mmHg 88%
    19:00 +10°C° 0.9 mm 0 mps 584 mmHg 91%
    20:00 +8°C° 0.3 mm 0 mps 584 mmHg 92%
    21:00 +8°C° 0.3 mm 1 mps 583 mmHg 92%
    22:00 +7°C° 0.3 mm 1 mps 583 mmHg 93%
    23:00 +6°C° 0 mm 1 mps 583 mmHg 93%

    19 July, Friday

    Time Temperature Precipitation Wind Pressure Humidity
    00:00 +6°C° 0 mm 1 mps 583 mmHg 93%
    01:00 +6°C° 0 mm 1 mps 583 mmHg 93%
    02:00 +6°C° 0 mm 1 mps 583 mmHg 93%
    03:00 +5°C° 0 mm 1 mps 582 mmHg 92%
    04:00 +5°C° 0 mm 1 mps 582 mmHg 92%
    05:00 +6°C° 0 mm 1 mps 583 mmHg 90%
    06:00 +7°C° 0 mm 0 mps 584 mmHg 88%
    07:00 +8°C° 0 mm 0 mps 585 mmHg 85%
    08:00 +10°C° 0.1 mm 0 mps 586 mmHg 77%
    09:00 +13°C° 0.1 mm 1 mps 586 mmHg 69%
    10:00 +14°C° 0.1 mm 1 mps 587 mmHg 61%
    11:00 +15°C° 0.3 mm 1 mps 588 mmHg 60%
    12:00 +16°C° 0.3 mm 1 mps 588 mmHg 58%
    13:00 +16°C° 0.3 mm 1 mps 588 mmHg 57%
    14:00 +16°C° 0.4 mm 1 mps 588 mmHg 61%
    15:00 +15°C° 0.4 mm 1 mps 587 mmHg 66%
    16:00 +15°C° 0.4 mm 1 mps 587 mmHg 70%
    17:00 +14°C° 0.4 mm 1 mps 587 mmHg 77%
    18:00 +13°C° 0.4 mm 1 mps 587 mmHg 83%
    19:00 +12°C° 0.4 mm 1 mps 587 mmHg 90%
    20:00 +10°C° 0.2 mm 1 mps 586 mmHg 92%
    21:00 +8°C° 0.2 mm 0 mps 586 mmHg 93%
    22:00 +6°C° 0.2 mm 0 mps 585 mmHg 95%
    23:00 +6°C° 0 mm 0 mps 585 mmHg 95%

    20 July, Saturday

    Time Temperature Precipitation Wind Pressure Humidity
    00:00 +6°C° 0 mm 0 mps 585 mmHg 96%
    01:00 +6°C° 0 mm 0 mps 585 mmHg 96%
    02:00 +5°C° 0 mm 0 mps 585 mmHg 96%
    03:00 +5°C° 0 mm 0 mps 585 mmHg 95%
    04:00 +5°C° 0 mm 0 mps 585 mmHg 95%
    05:00 +6°C° 0 mm 0 mps 586 mmHg 93%
    06:00 +8°C° 0 mm 0 mps 586 mmHg 91%
    07:00 +9°C° 0 mm 0 mps 587 mmHg 89%
    08:00 +12°C° 0 mm 1 mps 588 mmHg 82%
    09:00 +13°C° 0 mm 1 mps 589 mmHg 75%
    10:00 +15°C° 0 mm 1 mps 590 mmHg 68%
    11:00 +16°C° 0.2 mm 1 mps 590 mmHg 66%
    12:00 +16°C° 0.2 mm 2 mps 590 mmHg 64%
    13:00 +17°C° 0.2 mm 2 mps 590 mmHg 61%
    14:00 +17°C° 0.7 mm 2 mps 590 mmHg 65%
    15:00 +16°C° 0.7 mm 2 mps 589 mmHg 69%
    16:00 +16°C° 0.7 mm 2 mps 589 mmHg 73%
    17:00 +14°C° 0.9 mm 2 mps 589 mmHg 80%
    18:00 +13°C° 0.9 mm 1 mps 588 mmHg 87%
    19:00 +12°C° 0.9 mm 1 mps 588 mmHg 94%
    20:00 +11°C° 1.2 mm 1 mps 588 mmHg 94%
    21:00 +10°C° 1.2 mm 1 mps 588 mmHg 95%
    22:00 +9°C° 1.2 mm 1 mps 588 mmHg 95%
    23:00 +9°C° 3.3 mm 1 mps 587 mmHg 95%
    Show more